Preview of NWS' New Version of Forecast
This preview is not operational and should not be used for support decisions.

Regional Weather Roundup (RWR)

Issued by National Weather Service (NWS)

                            
000
ASUS46 KPQR 191210
RWROR 

OREGON REGIONAL WEATHER ROUNDUP
NATIONAL WEATHER SERVICE PORTLAND OR
400 AM PST TUE FEB 19 2019

NOTE: "FAIR" INDICATES FEW OR NO CLOUDS BELOW 12,000 FEET WITH
NO SIGNIFICANT WEATHER AND/OR OBSTRUCTIONS TO VISIBILITY.

ORZ001>013-191300-
NORTHWEST OREGON

  
CITY           SKY/WX    TMP DP  RH WIND       PRES   REMARKS
ASTORIA        CLOUDY    38  37  97 SE3       30.31F                  
6HR MIN TEMP:  38; 6HR MAX TEMP:  39; 6HR PCP: TRACE;                

TILLAMOOK      CLOUDY    36  36 100 CALM      30.35F                  
NEWPORT        DRIZZLE   36  36 100 SE3       30.36F                  
PORTLAND       CLOUDY    39  36  89 E3        30.33F                  
6HR MIN TEMP:  38; 6HR MAX TEMP:  40; 6HR PCP:  0.01;                

VANCOUVER WA   CLOUDY    37  36  96 CALM      30.32F                  
6HR MIN TEMP:  37; 6HR MAX TEMP:  40; 6HR PCP: TRACE;                

SCAPPOOSE      CLOUDY    38  36  92 CALM      30.32F FOG              
6HR MIN TEMP:  38; 6HR MAX TEMP:  40; 6HR PCP: TRACE;                

HILLSBORO      CLOUDY    36  36 100 CALM      30.32F FOG              
6HR MIN TEMP:  36; 6HR MAX TEMP:  37;                                

AURORA         CLOUDY    38  35  89 SW3       30.34F                  
6HR MIN TEMP:  38; 6HR MAX TEMP:  40;                                

MCMINNVILLE    CLOUDY    36  35  96 SE3       30.32F                  
6HR MIN TEMP:  36; 6HR MAX TEMP:  39;                                

SALEM          CLOUDY    39  33  79 S3        30.33F                  
6HR MIN TEMP:  37; 6HR MAX TEMP:  40; 6HR PCP: TRACE;                

CORVALLIS      CLOUDY    35  33  92 SE6       30.35F                  
EUGENE         CLOUDY    32  29  88 SW3       30.37R                  
6HR MIN TEMP:  29; 6HR MAX TEMP:  37;                                

$$

ORZ021-028-191300-
SOUTHWEST OREGON

  
CITY           SKY/WX    TMP DP  RH WIND       PRES   REMARKS
NORTH BEND     PTCLDY    35  34  96 SE6       30.39F                  
6HR MIN TEMP:  35; 6HR MAX TEMP:  38; 6HR PCP: TRACE;                

BROOKINGS      CLEAR     41  25  53 NE6       30.33S                  
ROSEBURG       MOCLDY    31  28  89 CALM      30.37F                  
6HR MIN TEMP:  30; 6HR MAX TEMP:  34;                                

SEXTON SUMMIT  CLEAR     24  22  91 NE8       30.20F                  
6HR MIN TEMP:  24; 6HR MAX TEMP:  26; 6HR PCP: TRACE;                

GRANTS PASS    FOG       27  25  93 CALM      30.37  VSB 1            
MEDFORD        CLEAR     27  24  89 CALM      30.33S                  
6HR MIN TEMP:  27; 6HR MAX TEMP:  34;                                

$$

ORZ014>016-041-191300-
COLUMBIA GORGE

  
CITY           SKY/WX    TMP DP  RH WIND       PRES   REMARKS
TROUTDALE      LGT RAIN  39  36  89 CALM      30.33F                  
6HR MIN TEMP:  38; 6HR MAX TEMP:  40; 6HR PCP:  0.01;                

HOOD RIVER     CLOUDY    37  32  81 NW10G17   30.24F WCI  30          
THE DALLES     CLOUDY    36  28  73 W7        30.24F                  
6HR MIN TEMP:  27; 6HR MAX TEMP:  38;                                

$$

ORZ029>031-041-044-049-050-061>064-502-503-505>511-191300-
EASTERN OREGON

  
CITY           SKY/WX    TMP DP  RH WIND       PRES   REMARKS
MADRAS         NOT AVBL                                               
REDMOND        CLEAR     22  17  81 S8        30.17F                  
6HR MIN TEMP:  22; 6HR MAX TEMP:  32;                                

BEND           CLEAR     23  18  80 SW8       30.17F                  
PRINEVILLE     CLEAR     25  19  80 CALM      30.17                   
KLAMATH FALLS  CLEAR     16  12  84 CALM      30.18F                  
6HR MIN TEMP:  16; 6HR MAX TEMP:  24;                                

LAKEVIEW       PTCLDY     1  -2  87 CALM      30.15F                  
HERMISTON      CLEAR     23  20  88 S5        30.22F                  
6HR MIN TEMP:  22; 6HR MAX TEMP:  28;                                

PENDLETON      CLOUDY    32  25  75 CALM      30.19S                  
6HR MIN TEMP:  28; 6HR MAX TEMP:  32;                                

JOHN DAY       CLOUDY    27  24  85 CALM      30.13                   
MEACHAM        CLOUDY    25  21  85 VRB3      30.10R                  
6HR MIN TEMP:  24; 6HR MAX TEMP:  25; 6HR PCP: TRACE;                

LA GRANDE      CLOUDY    28  23  81 W7        30.15R                  
6HR MIN TEMP:  24; 6HR MAX TEMP:  28; 6HR PCP: TRACE;                

BAKER CITY     CLOUDY    24  16  71 S7        30.10F                  
6HR MIN TEMP:  23; 6HR MAX TEMP:  26; 6HR PCP: TRACE;                

BURNS          CLOUDY    24  16  71 SW5       30.12F                  
6HR MIN TEMP:  21; 6HR MAX TEMP:  24;                                

ROME             N/A     23  15  71 S5        30.10F                  
6HR MIN TEMP:   9; 6HR MAX TEMP:  23;                                

ONTARIO        CLOUDY    27  20  75 CALM      30.19F                  
6HR MIN TEMP:  26; 6HR MAX TEMP:  30;                                

$$